Content
SEND FEEDBACK

Daily
Averages
Monthly
Summary
United States of America

FRAZER, MONTANA


Home > North America > United States > Montana
Elevation: 2868 feet     Latitude: 48 27N     Longitude: 105 56W

WEATHER
 
SELECT A DAY
Number of Records: 17,922;   Date Range: 9/1/12 - 9/16/14
 
SHARE

PRINT THIS DATA

[ ← Previous Day ]
WEATHER ALMANAC - JANUARY 31, 2013
[ Next Day → ]
[ °C ]   °F
Weather ElementAverageHighLow
Temperature-9.4 °F1.9 °F (11:53 pm)-20 °F (6:53 am)
Dewpoint-17.6 °F-4 °F (11:53 pm)-27 °F (6:53 am)
Humidity67.3 %76 % (11:53 pm)62 % (12:53 pm)
Barometer30.43 in30.57 in (7:53 am)30.16 in (11:53 pm)
Wind Speed5 mph9.2 mph (4:53 am)
Weather ElementAverage
Visibility10 mi
Wind DirectionSSE (162.6 °)

Weather ElementTotal
Precipitation---
Heating Degree Days74.1 (Base 65)
Averaged from 23 records on January 31, 2013
WEATHER CONDITIONS BREAKOUT
WIND DIRECTION BREAKOUT
WEATHER BY HOUR - JANUARY 31, 2013
[ °C ]   °F
Local TimeTemperatureDewpointHumidityBarometerVisibilityWind DirectionWind SpeedGust SpeedPrecipitationEventsConditions
1:53 AM-15.0 °F-24.0 °F64 %30.49 in10.0 miWest (270°)6.9 mphClear
2:53 AM-16.1 °F-25.1 °F64 %30.50 in10.0 miWNW (290°)8.1 mphClear
3:53 AM-17.0 °F-25.1 °F67 %30.52 in10.0 miWest (280°)5.8 mphClear
4:53 AM-18.0 °F-25.1 °F70 %30.53 in10.0 miWNW (290°)9.2 mphClear
5:53 AM-18.9 °F-26.0 °F70 %30.54 in10.0 miWest (280°)5.8 mphClear
6:53 AM-20.0 °F-27.0 °F70 %30.56 in10.0 miWest (270°)4.6 mphClear
7:53 AM-20.0 °F-27.0 °F70 %30.57 in10.0 miCalmClear
8:53 AM-17.0 °F-25.1 °F67 %30.57 in10.0 miWSW (250°)5.8 mphClear
9:53 AM-15.0 °F-23.1 °F67 %30.57 in10.0 miWest (260°)9.2 mphClear
10:53 AM-13.0 °F-22.0 °F64 %30.56 in10.0 miWSW (250°)6.9 mphClear
11:53 AM-11.0 °F-20.0 °F64 %30.52 in10.0 miWSW (250°)6.9 mphClear
12:53 PM-9.0 °F-18.9 °F62 %30.50 in10.0 miWest (270°)4.6 mphClear
1:53 PM-7.1 °F-17.0 °F62 %30.45 in10.0 miCalmOvercast
2:53 PM-5.1 °F-15.0 °F62 %30.43 in10.0 miCalmOvercast
3:53 PM-4.0 °F-14.1 °F62 %30.41 in10.0 miENE (70°)4.6 mphOvercast
4:53 PM-4.0 °F-13.0 °F65 %30.37 in10.0 miENE (70°)4.6 mphOvercast
5:53 PM-2.9 °F-11.9 °F65 %30.34 in10.0 miENE (70°)5.8 mphOvercast
6:53 PM-2.9 °F-11.0 °F68 %30.31 in10.0 miENE (70°)5.8 mphOvercast
7:53 PM-2.0 °F-9.0 °F72 %30.29 in10.0 miEast (80°)4.6 mphOvercast
8:53 PM-0.9 °F-8.0 °F72 %30.27 in10.0 miEast (80°)5.8 mphOvercast
9:53 PM0.0 °F-7.1 °F72 %30.23 in10.0 miEast (80°)3.5 mphOvercast
10:53 PM1.0 °F-6.0 °F72 %30.18 in10.0 miCalmOvercast
11:53 PM1.9 °F-4.0 °F76 %30.16 in10.0 miWest (260°)5.8 mphOvercast
Hourly data recorded from KOLF, located miles away from Frazer, Montana







STORIES FROM OUR PARTNERS